Wind_Speed
5 4 4 3 3 3 3 4 4 4 4 3 4 4 4 5 6 6 7 7 8 8 8 8 8 7 7 7 6 6 6 7 7 8 8 8 8 8 7 7 7 7 6
6 6 5 4 4 4 4 4 4 4 4 5 5 5 4 5 6 7 8 8 9 9 9 9 9 8 8 7 7 7 7 8 8 8 9 8 8 8 8 7 7 7 7
7 7 7 6 6 6 5 5 4 5 5 5 5 5 5 6 6 7 8 9 9 9 10 10 10 9 9 9 9 8 8 8 9 9 9 9 9 9 9 8 8 8 8
7 7 8 7 7 7 6 6 5 5 5 5 5 6 6 7 7 8 8 9 9 10 10 11 10 10 10 10 10 9 9 9 10 10 11 11 10 10 10 9 9 9 9
6 7 7 7 7 7 7 7 6 6 6 6 6 6 7 9 9 9 9 9 10 10 10 11 11 11 11 11 11 11 11 11 11 11 12 12 12 12 11 11 10 10 10
7 7 8 8 8 8 7 8 7 7 7 7 7 8 8 9 10 11 10 10 10 10 10 10 11 11 11 12 12 12 12 11 11 11 12 13 13 12 13 13 11 11 11
7 7 7 7 7 8 8 8 7 7 8 8 8 8 8 8 8 9 10 10 10 10 10 11 11 11 11 11 11 12 12 12 12 12 11 12 13 13 13 13 13 12 12
7 6 7 7 7 7 8 8 7 7 7 8 8 8 7 6 7 8 10 10 10 11 11 11 11 12 11 11 11 11 11 12 12 12 12 12 13 13 13 14 13 13 13
6 6 6 6 7 7 7 7 7 7 7 7 7 7 7 6 6 7 9 10 11 11 11 11 12 12 12 12 12 12 12 12 12 12 12 12 13 13 14 14 14 14 14
5 6 6 7 7 7 7 7 7 7 7 7 7 7 7 7 7 7 9 10 10 11 12 12 12 13 12 12 12 12 12 12 13 13 13 13 13 13 14 15 15 14 14
5 6 6 7 7 7 7 7 7 7 7 7 7 7 7 7 8 8 9 9 10 11 12 13 13 13 13 12 12 12 13 13 13 14 14 14 14 14 14 14 14 14 14
4 4 5 5 6 7 8 8 7 7 7 7 7 7 7 8 8 9 10 10 11 11 11 12 12 13 13 13 13 12 13 13 13 14 14 15 15 15 14 14 13 13 13
4 4 4 5 5 5 5 6 7 7 7 7 8 8 8 9 9 9 10 10 11 12 12 12 12 13 14 13 13 13 12 12 13 13 14 14 15 15 14 14 14 14 13
4 4 4 4 4 5 5 5 5 6 6 6 7 7 7 8 9 10 10 10 10 11 11 12 13 13 13 13 13 13 13 13 13 13 14 15 15 15 15 15 15 15 14
5 5 5 5 4 4 5 5 5 5 5 6 6 6 7 7 8 9 10 10 10 11 11 11 12 12 13 13 13 13 13 14 14 14 14 15 14 14 15 15 15 15 15
5 5 5 5 5 5 5 5 4 4 5 6 6 6 7 7 8 8 9 10 10 10 10 10 11 11 12 13 13 14 14 14 15 15 15 15 15 15 15 16 16 16 16
6 6 6 6 6 6 6 5 5 5 6 6 6 7 8 8 8 9 9 10 10 10 10 11 11 11 11 12 13 14 14 14 14 15 16 16 15 15 16 16 16 16 17
6 6 6 6 6 7 7 7 6 6 7 7 7 8 8 9 9 9 9 10 10 11 11 10 11 11 11 12 13 13 14 14 14 15 15 15 16 16 16 15 16 17 17
7 7 8 7 7 7 7 8 7 8 8 8 8 8 9 9 9 9 10 10 10 10 10 10 11 11 11 12 12 13 14 14 14 14 14 15 16 16 16 16 16 17 17
9 9 9 9 9 9 8 8 8 8 8 8 9 9 9 9 9 9 10 10 10 11 11 11 11 11 11 12 12 13 14 14 14 14 14 15 15 16 16 17 17 17 17
10 10 10 10 10 10 10 9 9 9 9 10 10 10 10 10 11 10 10 10 10 11 11 11 12 12 12 12 12 13 14 14 14 14 14 15 15 16 15 16 17 18 18
12 12 12 11 11 11 11 11 11 11 11 11 11 11 11 11 12 12 11 11 11 11 11 12 12 12 13 13 13 14 14 15 15 15 15 15 16 16 16 17 17 18 18
13 13 13 13 13 13 13 13 13 13 13 12 12 12 12 12 12 12 12 12 12 12 12 12 12 12 13 13 14 14 14 14 15 15 16 16 16 16 16 17 17 18 18
14 14 14 14 14 14 14 14 14 14 14 14 14 14 13 13 12 12 13 13 13 12 12 12 12 12 13 13 14 14 15 15 15 15 15 16 17 17 17 17 17 18 18
15 15 15 15 15 15 15 15 15 15 15 15 15 15 14 13 13 13 13 13 13 13 13 13 13 13 13 13 13 14 14 15 15 15 15 16 16 17 17 17 18 17 17
15 16 16 16 16 16 16 16 16 16 16 16 16 16 15 15 15 15 15 14 14 14 14 14 13 13 13 13 13 14 14 15 15 16 16 16 15 16 16 17 17 17 16
Wind_Direction
234 241 249 251 262 268 273 273 266 265 251 242 235 232 219 220 223 224 221 221 220 220 218 219 220 222 227 230 224 223 222 219 220 219 215 211 210 211 209 205 206 205 205
237 240 244 243 251 257 257 259 258 260 257 254 246 244 243 238 235 233 230 227 227 227 225 223 225 227 230 232 230 231 230 227 224 221 218 217 215 214 210 209 208 211 213
242 243 244 245 250 256 254 255 252 254 259 260 256 256 257 253 248 244 238 234 232 229 228 228 230 234 237 237 232 233 232 229 225 220 222 223 221 219 216 214 215 218 219
242 246 247 248 254 258 254 254 251 251 258 260 262 262 259 253 251 250 246 242 238 235 233 231 232 235 238 235 233 232 231 229 228 225 225 226 224 223 221 220 221 224 224
243 248 249 252 254 256 252 252 253 253 258 259 262 264 264 259 252 247 246 245 242 243 240 236 236 239 240 238 236 235 233 231 228 227 229 228 226 225 224 225 226 227 228
245 249 251 253 256 258 252 250 255 254 257 262 263 266 269 266 257 249 243 243 242 244 245 241 241 243 243 241 238 236 233 231 232 230 229 230 229 229 229 229 228 227 232
243 246 250 255 258 257 254 252 251 256 259 262 266 268 274 275 263 248 244 246 245 245 247 245 245 246 243 243 242 239 237 236 234 231 231 234 233 234 236 234 232 231 233
244 248 251 253 256 257 255 254 254 260 262 264 267 269 275 276 261 241 242 247 248 250 249 247 247 247 245 242 239 240 239 239 239 236 236 236 236 238 239 238 237 237 238
248 253 257 258 258 258 258 255 256 260 264 266 268 270 273 270 255 245 245 249 249 247 246 244 247 246 244 243 242 243 243 243 243 240 238 238 240 241 240 240 242 243 246
247 253 259 260 259 260 262 258 259 263 266 266 269 272 270 265 258 254 253 252 249 248 247 246 248 246 244 245 244 245 245 245 245 244 242 242 243 241 242 245 244 245 247
241 248 252 255 254 257 261 265 266 266 268 267 269 270 270 265 261 256 254 250 251 251 250 248 248 248 246 245 244 245 243 241 242 243 244 245 244 242 245 247 246 246 246
250 253 253 258 256 257 259 261 265 265 267 270 271 273 271 270 266 260 257 256 255 255 253 251 250 250 249 246 245 245 244 241 241 240 241 243 238 238 242 245 245 245 247
250 258 267 268 264 265 266 266 265 268 271 273 274 276 273 273 271 266 261 260 259 257 255 254 252 249 250 248 246 245 241 236 236 237 237 238 236 236 238 240 243 247 248
248 256 261 265 269 272 277 272 268 271 278 280 281 281 280 276 273 265 262 263 262 262 259 256 254 252 249 249 246 246 244 240 239 237 237 239 238 237 238 240 244 248 249
250 253 262 262 264 273 275 274 272 275 282 287 291 286 286 283 277 271 266 263 264 266 264 262 258 254 253 249 246 247 244 242 241 238 238 239 238 239 240 241 244 246 249
259 256 261 264 267 271 272 272 275 281 288 295 297 294 293 290 285 277 271 268 267 266 263 260 261 258 255 249 247 247 246 246 242 243 241 241 240 242 244 246 247 248 250
265 265 269 267 265 263 268 272 277 285 288 290 294 296 296 295 292 287 278 273 271 267 264 263 261 260 258 254 249 246 246 247 245 245 244 242 242 243 245 246 245 248 249
268 269 272 270 267 267 270 273 278 285 288 287 289 293 296 297 296 293 289 282 279 275 270 264 260 260 259 258 255 250 247 246 245 247 248 246 244 244 247 248 246 247 248
271 272 273 273 272 274 276 273 275 283 288 290 290 291 293 294 295 295 294 290 285 281 278 271 266 261 261 262 260 255 253 250 249 249 250 248 249 250 250 251 246 246 248
270 272 273 274 275 275 276 275 275 279 284 287 288 289 290 291 292 292 294 293 286 280 280 279 275 269 265 263 261 257 254 252 252 253 253 253 254 254 255 253 251 249 250
270 272 272 271 272 273 274 275 276 278 281 285 287 286 287 288 287 288 290 291 287 282 278 277 275 271 266 262 260 257 253 253 254 254 255 257 257 258 259 255 254 251 250
270 274 274 273 272 273 275 275 276 278 281 284 287 287 287 287 286 285 286 287 286 283 279 276 274 271 266 260 256 254 253 252 252 254 257 258 259 258 258 259 255 252 252
270 272 273 273 272 272 274 276 276 276 278 281 282 284 285 285 284 282 283 285 284 282 278 277 276 274 268 265 258 254 252 251 251 254 257 258 258 259 259 257 255 256 252
271 272 272 272 273 273 271 272 274 275 277 279 279 279 281 282 283 281 280 282 281 279 278 278 278 277 274 270 265 260 259 256 254 256 257 259 260 262 260 258 258 257 253
272 272 270 271 272 271 270 270 272 274 276 277 277 277 278 280 281 281 280 279 277 275 276 276 276 277 276 273 269 266 264 262 261 259 262 262 262 263 264 263 260 258 255
273 273 271 272 273 273 271 269 270 273 276 276 275 275 277 278 278 278 278 276 276 274 275 275 274 274 273 272 270 270 269 267 266 263 265 266 265 265 265 265 262 260 259
Height
5869 5869 5868 5868 5868 5868 5867 5867 5867 5866 5866 5865 5865 5865 5865 5865 5865 5865 5865 5865 5865 5866 5866 5867 5868 5868 5868 5869 5869 5869 5870 5870 5871 5871 5872 5873 5873 5873 5874 5875 5875 5876 5876
5868 5868 5868 5868 5867 5867 5867 5867 5866 5866 5865 5865 5865 5864 5864 5864 5864 5864 5864 5864 5865 5865 5865 5866 5867 5867 5868 5868 5868 5869 5869 5870 5870 5871 5871 5872 5872 5873 5873 5874 5875 5875 5876
5867 5867 5867 5867 5866 5866 5866 5866 5866 5865 5865 5864 5864 5863 5863 5863 5863 5862 5863 5863 5863 5864 5864 5865 5866 5866 5867 5867 5867 5868 5868 5869 5869 5870 5870 5871 5871 5872 5873 5873 5874 5874 5875
5866 5866 5866 5866 5865 5865 5865 5865 5864 5864 5864 5863 5863 5862 5861 5861 5861 5861 5861 5861 5862 5862 5863 5863 5864 5864 5865 5865 5866 5866 5867 5867 5868 5869 5869 5870 5870 5871 5872 5872 5873 5873 5874
5865 5864 5864 5864 5864 5864 5864 5864 5863 5863 5863 5862 5861 5861 5860 5859 5858 5859 5859 5860 5860 5861 5861 5861 5862 5863 5863 5864 5864 5865 5865 5866 5867 5867 5868 5868 5869 5870 5870 5871 5872 5872 5873
5863 5863 5863 5863 5863 5863 5862 5862 5862 5862 5861 5861 5860 5859 5858 5856 5854 5855 5856 5858 5858 5859 5860 5860 5861 5861 5862 5862 5862 5863 5864 5864 5865 5865 5866 5867 5867 5868 5869 5869 5870 5871 5871
5862 5862 5861 5861 5862 5861 5861 5861 5860 5860 5860 5859 5859 5857 5855 5851 5848 5850 5854 5856 5857 5858 5858 5858 5859 5859 5860 5860 5861 5861 5862 5863 5863 5864 5864 5865 5865 5866 5867 5867 5868 5869 5869
5860 5860 5860 5860 5860 5860 5859 5859 5859 5859 5858 5858 5857 5856 5854 5849 5846 5849 5852 5854 5855 5856 5856 5857 5857 5858 5858 5858 5859 5859 5860 5861 5861 5862 5863 5863 5863 5864 5865 5865 5866 5867 5867
5858 5858 5858 5859 5859 5859 5858 5858 5858 5857 5857 5856 5856 5855 5853 5851 5850 5850 5852 5853 5853 5854 5854 5855 5855 5856 5856 5857 5857 5858 5858 5859 5859 5860 5861 5861 5862 5862 5862 5863 5864 5865 5865
5858 5858 5857 5857 5857 5857 5857 5857 5857 5856 5856 5855 5855 5854 5853 5852 5851 5851 5851 5852 5852 5852 5852 5853 5853 5853 5854 5854 5855 5855 5856 5856 5857 5858 5859 5859 5860 5860 5860 5861 5862 5863 5863
5856 5856 5856 5856 5856 5856 5856 5856 5855 5855 5855 5854 5853 5853 5852 5851 5851 5851 5850 5850 5850 5850 5850 5850 5851 5851 5852 5852 5853 5853 5853 5854 5855 5855 5856 5857 5857 5858 5858 5859 5859 5860 5861
5855 5855 5855 5855 5855 5855 5855 5854 5854 5854 5853 5853 5852 5851 5851 5850 5849 5849 5849 5849 5848 5848 5848 5848 5848 5849 5849 5850 5850 5851 5851 5851 5852 5852 5853 5853 5854 5855 5856 5856 5857 5857 5858
5855 5855 5854 5854 5854 5854 5853 5853 5853 5853 5852 5852 5851 5850 5849 5849 5848 5847 5847 5847 5846 5846 5846 5846 5846 5846 5846 5847 5847 5848 5848 5848 5849 5849 5850 5851 5852 5852 5853 5854 5855 5855 5855
5854 5854 5853 5853 5853 5853 5852 5852 5852 5851 5851 5851 5850 5849 5848 5847 5847 5846 5845 5845 5844 5844 5843 5843 5844 5844 5844 5844 5845 5846 5846 5846 5846 5846 5847 5848 5849 5850 5850 5851 5852 5852 5853
5853 5853 5852 5852 5852 5852 5851 5851 5851 5850 5850 5849 5848 5848 5847 5846 5845 5844 5843 5843 5842 5842 5841 5841 5841 5841 5841 5842 5842 5843 5843 5844 5844 5845 5845 5846 5846 5847 5847 5848 5849 5849 5850
5852 5851 5851 5851 5851 5850 5850 5850 5850 5849 5848 5848 5847 5846 5845 5844 5843 5842 5841 5841 5840 5839 5839 5839 5839 5839 5839 5839 5840 5840 5841 5841 5842 5842 5843 5843 5843 5844 5844 5845 5845 5846 5847
5850 5850 5850 5849 5849 5849 5849 5849 5848 5848 5847 5846 5846 5845 5844 5843 5842 5840 5840 5839 5838 5837 5837 5837 5836 5836 5836 5837 5837 5837 5838 5838 5839 5839 5839 5840 5840 5841 5841 5841 5842 5842 5843
5849 5849 5848 5848 5848 5848 5847 5847 5847 5846 5845 5845 5844 5843 5842 5841 5840 5839 5838 5837 5836 5835 5835 5835 5834 5834 5834 5834 5834 5834 5835 5835 5836 5836 5837 5837 5837 5838 5838 5838 5838 5839 5839
5847 5847 5847 5846 5846 5846 5846 5845 5845 5844 5844 5843 5843 5842 5841 5840 5838 5837 5836 5835 5834 5833 5833 5832 5832 5832 5831 5831 5831 5831 5832 5832 5833 5833 5834 5834 5834 5835 5835 5835 5835 5835 5835
5845 5845 5845 5845 5844 5844 5844 5844 5843 5843 5842 5841 5841 5840 5839 5838 5837 5835 5834 5833 5832 5831 5831 5830 5830 5829 5829 5829 5829 5829 5829 5829 5830 5830 5831 5831 5831 5831 5832 5832 5832 5832 5832
5843 5843 5843 5843 5842 5842 5842 5842 5841 5841 5840 5839 5839 5838 5837 5836 5835 5834 5832 5831 5830 5829 5829 5828 5827 5827 5826 5826 5826 5826 5827 5827 5827 5827 5827 5828 5828 5828 5828 5828 5828 5828 5828
5840 5840 5840 5840 5840 5840 5839 5839 5839 5838 5838 5837 5836 5835 5834 5833 5832 5831 5830 5829 5828 5827 5826 5825 5825 5825 5824 5824 5824 5824 5824 5825 5824 5824 5824 5824 5824 5824 5824 5824 5824 5825 5825
5838 5838 5837 5837 5836 5836 5836 5836 5836 5836 5835 5834 5833 5833 5832 5830 5829 5828 5828 5826 5825 5824 5824 5823 5822 5822 5821 5821 5821 5821 5821 5821 5821 5821 5821 5821 5821 5821 5821 5821 5821 5821 5821
5834 5834 5834 5834 5833 5833 5833 5833 5832 5832 5832 5831 5830 5830 5829 5828 5826 5825 5825 5823 5822 5821 5821 5820 5820 5819 5818 5818 5818 5818 5818 5817 5818 5818 5818 5818 5818 5818 5817 5817 5817 5817 5817
5830 5830 5830 5830 5830 5829 5829 5829 5828 5828 5828 5827 5827 5826 5825 5824 5823 5822 5821 5820 5819 5818 5818 5817 5816 5816 5815 5815 5815 5814 5814 5814 5814 5814 5814 5814 5814 5814 5813 5813 5813 5813 5813
5827 5826 5826 5826 5826 5825 5825 5825 5824 5824 5824 5823 5823 5822 5821 5820 5819 5818 5817 5816 5816 5815 5814 5813 5813 5812 5812 5812 5811 5811 5811 5811 5810 5811 5811 5811 5810 5810 5810 5809 5809 5809 5809